Etusivu
METAR-TAF:

METAR-TAF

Lentoasemat :

Gamvik, Norja

Leveyspiiri: 71-02N, Pituuspiiri: 027-50E, korkeus merenpinnasta: 1 m

Tämänhetkinen sää

Tämä raportti tehtiin 1 tunti ja 54 minuuttia sitten, kello 15.50 UTC
Tuuli 25 kn luoteesta
Lämpötila 4°C
Kosteus 81%
Ilmanpaine 1013 hPa
Näkyvyys 10 km tai enemmän
Hajonneita pilviä 1600 ft:n korkeudessa
heikkoja vesikuuroja

METAR: ENMH 211550Z 32025KT 9999 -SHRA BKN016 04/01 Q1013

Aika: 18:44 (17:44 UTC)


TAF: puuttuu

Säähavainnot ja -ennusteet yli 4000 lentoasemalta (METAR- ja TAF-raportit).

Käytössä olevat sääasemat on merkitty karttaan keltaisilla ja punaisilla pisteillä.

Aseta hiiri pisteen päälle nähdäksesi sääaseman nimen.

Klikkaa sitten nähdäksesi säähavainnot ja -ennusteet.

Kartan vaihtaminen: klikkaa mustalla rastilla varustettuja vihreitä pisteitä, niin voit zoomata sisään; viivalla varustettua vihreää pistettä, niin voit zoomata ulos tai vihreitä nuolia, niin pääset viereisille kartoille.


METAR-TAF: